Change the Weather History Date:

Wednesday, April 10, 2013

  Actual Average Record
Temperature  
Mean Temperature 54 °F -  
Max Temperature 73 °F 63 °F 82 °F (2011)
Min Temperature 36 °F 44 °F 28 °F (2003)
Degree Days  
Heating Degree Days 10    
Growing Degree Days 4 (Base 50)    
Moisture  
Dew Point 43 °F    
Average Humidity 94    
Maximum Humidity 100    
Minimum Humidity 68    
Precipitation  
Precipitation 0.78 in - - ()
Sea Level Pressure  
Sea Level Pressure 29.82 in    
Wind  
Wind Speed 12 mph (WNW)    
Max Wind Speed 26 mph    
Max Gust Speed 39 mph    
Visibility 8 miles    
Events Rain , Snow , Thunderstorm    
Averages and records for this station are not official NWS values.
T = Trace of Precipitation, MM = Missing Value Source: NWS Daily Summary

Daily Weather History Graph

Daily Weather History Graph

Search for Another Location

Airport or City:

Trip Planner

Search our weather history database for the weather conditions in past years. The results will help you decide how hot, cold, wet, or windy it might be!

Date:

Astronomy

Apr. 10, 2013 Rise Set
Actual Time 6:49 AM CDT 7:46 PM CDT
Civil Twilight 6:23 AM CDT 8:12 PM CDT
Nautical Twilight 5:51 AM CDT 8:44 PM CDT
Astronomical Twilight 5:19 AM CDT 9:16 PM CDT
Moon 6:46 AM CDT (4/10) 8:21 PM CDT (4/10)
Length of Visible Light 13h 49m
Length of Day
12h 57m
New Moon, 0% of the Moon is Illuminated
Apr 10
New Moon
Apr 18
First Quarter
Apr 25
Full
May 2
Last Quarter
May 9
New

Hourly Weather History & Observations

Time (CDT) Temp. Windchill Dew Point Humidity Pressure Visibility Wind Dir Wind Speed Gust Speed Precip Events Conditions
12:57 AM 73.0 °F - 62.1 °F 68% 29.74 in 10.0 mi South 17.3 mph 29.9 mph N/A   Overcast
1:57 AM 73.0 °F - 63.0 °F 71% 29.72 in 10.0 mi South 20.7 mph 26.5 mph N/A   Overcast
2:57 AM 72.0 °F - 63.0 °F 73% 29.72 in 10.0 mi West 12.7 mph 20.7 mph 0.00 in Rain Light Rain
3:01 AM 69.8 °F - 60.8 °F 73% 29.77 in 10.0 mi West 26.5 mph 39.1 mph 0.00 in Rain Light Rain
3:44 AM 57.2 °F - 53.6 °F 88% 29.79 in 10.0 mi NW 5.8 mph - 0.01 in Thunderstorm Overcast
3:57 AM 57.9 °F - 54.0 °F 87% 29.75 in 10.0 mi NW 5.8 mph - 0.01 in Rain , Thunderstorm Light Rain
4:03 AM 57.2 °F - 53.6 °F 88% 29.79 in 10.0 mi NNW 4.6 mph - 0.00 in Rain Light Rain
4:38 AM 55.4 °F - 51.8 °F 88% 29.80 in 10.0 mi West 16.1 mph - 0.00 in   Overcast
4:47 AM 53.6 °F - 51.8 °F 94% 29.81 in 10.0 mi WNW 12.7 mph 19.6 mph 0.00 in Thunderstorm Overcast
4:57 AM 54.0 °F - 51.1 °F 90% 29.78 in 10.0 mi NW 11.5 mph - 0.00 in Rain , Thunderstorm Light Rain
5:04 AM 53.6 °F - 51.8 °F 94% 29.81 in 10.0 mi West 18.4 mph 23.0 mph 0.00 in Rain Light Rain
5:32 AM 51.8 °F - 50.0 °F 94% 29.81 in 10.0 mi Calm Calm - 0.04 in Rain Light Rain
5:54 AM 51.8 °F - 50.0 °F 94% 29.81 in 10.0 mi WNW 5.8 mph - 0.04 in Rain Light Rain
5:57 AM 52.0 °F - 50.0 °F 93% 29.79 in 10.0 mi WNW 5.8 mph - 0.04 in   Overcast
6:57 AM 48.9 °F - 48.0 °F 97% 29.84 in 9.0 mi West 13.8 mph - 0.06 in Rain Light Rain
7:57 AM 48.9 °F - 48.0 °F 97% 29.81 in 10.0 mi NE 5.8 mph - 0.01 in Rain Light Rain
8:14 AM 50.0 °F - 48.2 °F 94% 29.84 in 10.0 mi NNW 3.5 mph - N/A   Overcast
8:40 AM 50.0 °F - 48.2 °F 94% 29.84 in 10.0 mi Variable 3.5 mph - N/A   Overcast
8:57 AM 50.0 °F - 48.0 °F 93% 29.82 in 10.0 mi WNW 4.6 mph - 0.00 in Rain Light Rain
9:18 AM 48.2 °F - 48.2 °F 100% 29.85 in 10.0 mi Variable 3.5 mph - 0.00 in Rain Light Rain
9:53 AM 48.2 °F - 46.4 °F 93% 29.86 in 10.0 mi WNW 11.5 mph - 0.03 in Rain , Thunderstorm Light Rain
9:57 AM 46.9 °F - 46.0 °F 97% 29.85 in 10.0 mi NW 13.8 mph - 0.03 in Rain , Thunderstorm Light Rain
10:05 AM 46.4 °F 40.7 °F 46.4 °F 100% 29.86 in 10.0 mi NNW 12.7 mph 16.1 mph 0.00 in Rain , Thunderstorm Light Rain
10:08 AM 46.4 °F 41.1 °F 46.4 °F 100% 29.86 in 10.0 mi NNW 11.5 mph 16.1 mph 0.00 in Rain Light Rain
10:57 AM 48.0 °F - 46.9 °F 96% 29.81 in 10.0 mi NE 10.4 mph - 0.00 in Rain Light Rain
11:09 AM 48.2 °F - 46.4 °F 93% 29.84 in 10.0 mi West 9.2 mph 18.4 mph 0.00 in   Overcast
11:57 AM 44.1 °F 37.7 °F 43.0 °F 96% 29.85 in 10.0 mi West 12.7 mph - 0.00 in   Overcast
12:52 PM 42.8 °F 38.6 °F 42.8 °F 100% 29.84 in 10.0 mi WNW 6.9 mph - 0.00 in Rain Light Rain
12:57 PM 44.1 °F 42.5 °F 42.1 °F 93% 29.82 in 10.0 mi Variable 3.5 mph - 0.00 in Rain Light Rain
1:05 PM 44.6 °F 42.2 °F 42.8 °F 93% 29.84 in 10.0 mi Variable 4.6 mph - N/A   Overcast
1:15 PM 44.6 °F 39.7 °F 42.8 °F 93% 29.84 in 9.0 mi West 9.2 mph - N/A   Overcast
1:57 PM 42.1 °F 35.7 °F 41.0 °F 96% 29.82 in 4.0 mi WNW 11.5 mph - N/A   Overcast
2:13 PM 42.8 °F 35.8 °F 41.0 °F 93% 29.85 in 2.5 mi West 13.8 mph - N/A   Overcast
2:22 PM 42.8 °F 34.8 °F 39.2 °F 87% 29.84 in 1.8 mi West 17.3 mph - 0.00 in Rain Light Rain
2:54 PM 39.2 °F 33.0 °F 39.2 °F 100% 29.79 in 2.0 mi WNW 9.2 mph 18.4 mph 0.00 in Rain Light Rain
2:57 PM 39.9 °F 32.9 °F 39.0 °F 97% 29.78 in 2.0 mi NW 11.5 mph - 0.00 in Rain Light Rain
3:04 PM 39.2 °F 31.6 °F 39.2 °F 100% 29.82 in 3.0 mi West 12.7 mph - 0.00 in Rain Light Rain
3:09 PM 39.2 °F 31.6 °F 39.2 °F 100% 29.81 in 4.0 mi WNW 12.7 mph - 0.00 in Rain , Thunderstorm Light Rain
3:24 PM 39.2 °F 32.5 °F 39.2 °F 100% 29.80 in 9.0 mi NW 10.4 mph - 0.00 in Rain Light Rain
3:44 PM 39.2 °F 30.8 °F 37.4 °F 93% 29.83 in 9.0 mi West 15.0 mph 25.3 mph 0.02 in Rain , Thunderstorm Light Thunderstorms and Rain
3:57 PM 39.0 °F 30.6 °F 37.0 °F 93% 29.81 in 9.0 mi West 15.0 mph 20.7 mph 0.05 in Rain , Thunderstorm Thunderstorms and Rain
4:09 PM 37.4 °F 29.3 °F 37.4 °F 100% 29.77 in 2.5 mi NW 12.7 mph - 0.13 in Snow , Thunderstorm Light Thunderstorms and Snow
4:13 PM 37.4 °F 30.3 °F 37.4 °F 100% 29.78 in 1.8 mi NW 10.4 mph 18.4 mph 0.16 in Snow , Thunderstorm Light Thunderstorms and Snow
4:18 PM 37.4 °F 29.8 °F 37.4 °F 100% 29.77 in 2.5 mi NW 11.5 mph 18.4 mph 0.18 in Snow , Thunderstorm Light Thunderstorms and Snow
4:28 PM 37.4 °F 26.6 °F 37.4 °F 100% 29.90 in 1.8 mi SW 21.9 mph 28.8 mph 0.29 in Snow , Thunderstorm Light Thunderstorms and Snow
4:38 PM 37.4 °F 29.3 °F 37.4 °F 100% 29.78 in 1.0 mi NW 12.7 mph - 0.46 in Snow , Thunderstorm Light Thunderstorms and Snow
4:43 PM 37.4 °F 29.8 °F 37.4 °F 100% 29.82 in 1.8 mi West 11.5 mph 18.4 mph 0.49 in Snow , Thunderstorm Light Thunderstorms and Snow
4:45 PM 37.4 °F 29.8 °F 37.4 °F 100% 29.85 in 2.0 mi WSW 11.5 mph 18.4 mph 0.49 in Snow , Thunderstorm Light Thunderstorms and Snow
4:49 PM 37.4 °F 28.5 °F 37.4 °F 100% 29.83 in 4.0 mi West 15.0 mph 18.4 mph 0.50 in Snow , Thunderstorm Light Thunderstorms and Snow
4:57 PM 37.9 °F 29.2 °F 37.0 °F 97% 29.83 in 10.0 mi West 15.0 mph - 0.50 in Rain , Thunderstorm Light Rain
5:00 PM 37.4 °F 30.8 °F 37.4 °F 100% 29.82 in 10.0 mi West 9.2 mph - 0.00 in Rain Light Rain
5:13 PM 37.4 °F 31.4 °F 37.4 °F 100% 29.85 in 10.0 mi WSW 8.1 mph - 0.03 in Rain , Thunderstorm Rain
5:28 PM 37.4 °F 32.8 °F 37.4 °F 100% 29.80 in 10.0 mi NNW 5.8 mph - 0.06 in Rain Light Rain
5:42 PM 37.4 °F 32.8 °F 37.4 °F 100% 29.76 in 10.0 mi North 5.8 mph - 0.07 in Rain Light Rain
5:57 PM 39.0 °F 35.7 °F 37.0 °F 93% 29.78 in 10.0 mi WNW 4.6 mph - 0.07 in   Overcast
6:04 PM 39.2 °F 34.2 °F 37.4 °F 93% 29.80 in 10.0 mi West 6.9 mph - N/A   Overcast
6:30 PM 39.2 °F 32.5 °F 37.4 °F 93% 29.83 in 10.0 mi WSW 10.4 mph - 0.00 in Rain Light Rain
6:57 PM 39.0 °F 31.4 °F 37.9 °F 96% 29.85 in 10.0 mi West 12.7 mph - 0.01 in   Overcast
7:13 PM 39.2 °F 31.2 °F 37.4 °F 93% 29.83 in 10.0 mi WNW 13.8 mph - N/A   Overcast
7:57 PM 37.9 °F 29.6 °F 36.0 °F 93% 29.83 in 5.0 mi WNW 13.8 mph 19.6 mph N/A   Overcast
8:49 PM 37.4 °F 28.5 °F 35.6 °F 93% 29.84 in 10.0 mi West 15.0 mph - N/A   Overcast
8:57 PM 37.0 °F 29.3 °F 35.1 °F 93% 29.85 in 10.0 mi WNW 11.5 mph - N/A   Overcast
9:13 PM 37.4 °F 28.9 °F 35.6 °F 93% 29.84 in 10.0 mi WNW 13.8 mph 20.7 mph N/A   Overcast
9:57 PM 37.0 °F 29.8 °F 35.1 °F 93% 29.87 in 10.0 mi WNW 10.4 mph - N/A   Overcast
10:46 PM 37.4 °F 28.9 °F 35.6 °F 93% 29.87 in 6.0 mi West 13.8 mph 19.6 mph N/A   Overcast
10:57 PM 36.0 °F 27.1 °F 35.1 °F 97% 29.89 in 8.0 mi WNW 13.8 mph - N/A   Overcast
11:57 PM 36.0 °F 27.5 °F 35.1 °F 97% 29.91 in 4.0 mi West 12.7 mph - N/A   Overcast